Location: Beuerbach
(48.1459°N, 10.9174°E)
Time: 03:16:53
(UTC+00:00)

Cosmos 2333 - Pass Details

Date: 23 May 2024
Orbit: 828 x 866 km, 70.9° (Epoch: 19 June)

Event Time Altitude Azimuth Distance (km) Brightness Sun altitude
Rises 01:42:50 0° 332° (NNW) 3,424 7.7 -13.5°
Reaches altitude 10° 01:45:17 10° 334° (NNW) 2,491 7.0 -13.2°
Maximum altitude 01:51:02 78° 61° (ENE) 882 4.4 -12.7°
Drops below altitude 10° 01:56:47 10° 148° (SSE) 2,496 6.5 -12.1°
Sets 01:59:15 0° 150° (SSE) 3,432 7.2 -11.8°
